[[{"header":{"parameterUnit":"m.s-1","parameterCategory":1,"la1":30.2991,"la2":30.254,"lo1":-89.0895,"lo2":-89.0444,"dx":0.0017,"dy":0.0017,"nx":28,"ny":28,"refTime":"2022-11-30T15:00:00:Z","depth":0,"parameterNumber":2,"parameterNumberName":"U-component_of_WINDS"},"data":[0,0,0,0,0,0,0,0,0,0,0,0,0,0,0,0,0,0,0,0,0,0,0,0,0,0,0,0,0,0,0,0,0,0,0,0,0,0,0,0,0,0,0,0,0,0,0,0,0,0,0,0,0,0,0,0,0,0,-5.0568,-5.0569,0,-5.0637,-5.0638,-5.0638,-5.0526,-5.0522,-5.0518,-5.0514,-5.0586,-5.0592,-5.0597,0,0,0,0,0,0,0,0,0,0,0,0,0,-5.0339,-5.0344,-5.0568,-5.0569,-5.057,-5.0637,-5.0638,-5.0639,-5.0526,-5.0522,-5.0517,-5.0512,-5.0585,-5.0591,-5.0598,0,0,0,0,0,0,0,0,0,0,0,0,0,-5.0427,-5.0346,-5.0568,-5.0522,-5.0518,-5.0637,-5.0638,-5.0639,-5.0527,-5.0521,-5.0516,-5.051,-5.0582,-5.059,-5.0599,-5.0766,0,0,-5.0624,-5.0628,0,0,0,0,0,0,0,0,-5.0422,-5.0435,-5.0527,-5.0525,-5.0521,-5.0567,-5.0583,-5.0682,-5.0529,-5.0524,-5.0514,-5.0507,-5.0585,-5.0592,-5.0618,-5.0769,-5.0772,-5.0625,-5.063,-5.0633,-5.0636,0,0,0,0,0,0,0,-5.0416,-5.0432,-5.0595,-5.0529,-5.0525,-5.0498,-5.0504,-5.0602,-5.0586,-5.0524,-5.0516,-5.0525,-5.0582,-5.061,-5.0619,-5.0773,-5.0624,-5.0632,-5.0637,-5.064,-5.1066,-5.1072,0,0,0,0,0,0,-5.0415,-5.0427,-5.0593,-5.0597,-5.0456,-5.0506,-5.0513,-5.0558,-5.0585,-5.0583,-5.053,-5.052,-5.0599,-5.0609,-5.0621,-5.082,-5.0633,-5.0641,-5.0646,-5.106,-5.1067,-5.1074,0,0,0,0,0,0,-5.0411,-5.0431,-5.059,-5.051,-5.0528,-5.0517,-5.0568,-5.0562,-5.0591,-5.0589,-5.0586,-5.0562,-5.0595,-5.0609,-5.0731,-5.0821,-5.0645,-5.0652,-5.1052,-5.1062,-5.1071,-5.1218,0,0,0,0,0,0,-5.0405,-5.043,-5.0494,-5.0512,-5.0533,-5.0699,-5.0573,-5.0568,-5.0605,-5.0592,-5.0619,-5.0618,-5.0591,-5.0719,-5.0739,-5.0829,-5.0659,-5.1044,-5.1056,-5.1068,-5.1205,-5.1231,-5.1254,0,0,0,0,0,-5.0397,-5.0533,-5.0498,-5.0518,-5.0612,-5.0704,-5.0716,-5.0683,-5.0613,-5.0677,-5.0676,-5.0617,-5.0807,-5.0732,-5.0754,-5.0848,-5.1038,-5.1053,-5.1067,-5.1194,-5.1226,-5.1253,0,0,0,0,0,0,-5.0526,-5.0534,-5.0496,-5.0641,-5.0673,-5.0685,-5.0765,-5.0718,-5.0771,-5.0757,-5.0713,-5.072,-5.0851,-5.0861,-5.0778,-5.1011,-5.0911,-5.093,-5.1,-5.1031,-5.1055,-5.1051,-5.0666,0,0,0,0,0,-5.0571,-5.0645,-5.0648,-5.0776,-5.0794,-5.0777,-5.0816,-5.0788,-5.0819,-5.0832,-5.084,-5.0873,-5.094,-5.0985,-5.1047,-5.1205,-5.121,-5.128,-5.1304,-5.1324,-5.1342,-5.1427,-5.1459,-5.1121,-5.1121,-5.112,0,0,-5.0665,-5.0679,-5.0729,-5.0803,-5.0824,-5.0902,-5.0789,-5.0877,-5.0935,-5.0845,-5.0961,-5.0968,-5.1002,-5.1143,-5.1205,-5.1155,-5.1436,-5.1342,-5.1358,-5.1365,-5.1445,-5.1477,-5.1506,-5.113,-5.1129,-5.1127,0,0,-5.0878,-5.0895,-5.1004,-5.1027,-5.1061,-5.1048,-5.1074,-5.1094,-5.1095,-5.121,-5.1145,-5.1213,-5.1329,-5.1356,-5.1386,-5.1607,-5.1556,-5.1628,-5.1757,-5.184,-5.1867,-5.189,-5.1971,-5.2001,-5.1646,-5.1646,-5.1646,0,-5.0991,-5.1106,-5.1066,-5.1159,-5.1193,-5.1115,-5.1226,-5.125,-5.1303,-5.1329,-5.1271,-5.1416,-5.1433,-5.158,-5.1634,-5.1659,-5.1689,-5.1627,-5.1866,-5.1889,-5.1911,-5.1987,-5.2018,-5.1655,-5.1654,-5.1653,-5.1652,0,-5.1245,-5.1325,-5.1409,-5.1462,-5.1506,-5.1607,-5.1582,-5.1632,-5.1599,-5.1593,-5.1711,-5.1728,-5.1793,-5.1825,-5.1794,-5.1967,-5.1935,-5.1873,-5.1772,-5.1952,-5.2024,-5.2053,-5.1668,-5.1664,-5.1662,-5.166,0,0,-5.1543,-5.157,-5.1602,-5.1625,-5.1656,-5.1718,-5.1815,-5.1877,-5.1921,-5.1959,-5.204,-5.214,-5.2082,-5.2115,-5.2086,-5.216,-5.2336,-5.2088,-5.2088,-5.2135,-5.253,-5.2579,-5.2613,-5.2301,-5.2306,-5.231,-5.2528,0,-5.1755,-5.1923,-5.189,-5.2055,-5.2129,-5.2055,-5.214,-5.2168,-5.2165,-5.2228,-5.2223,-5.2295,-5.2213,-5.2232,-5.2301,-5.23,-5.2415,-5.2284,-5.2378,-5.2381,-5.2374,-5.265,-5.2702,-5.2907,-5.2555,-5.256,-5.2563,0,-5.2027,-5.2075,-5.2248,-5.2266,-5.2296,-5.2373,-5.2428,-5.2488,-5.2519,-5.2511,-5.2548,-5.2505,-5.2602,-5.2498,-5.2631,-5.2543,-5.2579,-5.2584,-5.2591,-5.2601,-5.2485,-5.2669,-5.2971,-5.3003,-5.2606,-5.2603,-5.26,0,-5.223,-5.2337,-5.2454,-5.2476,-5.25,-5.2556,-5.2569,-5.2593,-5.2633,-5.268,-5.2706,-5.2764,-5.2797,-5.2843,-5.2817,-5.2743,-5.2956,-5.2849,-5.2953,-5.2955,-5.3004,-5.3002,-5.3318,-5.3023,-5.3023,-5.3022,-5.3022,0,-5.2472,-5.2581,-5.2546,-5.2618,-5.2738,-5.2698,-5.2817,-5.2821,-5.2844,-5.2916,-5.2854,-5.2924,-5.2884,-5.295,-5.293,-5.3045,-5.3059,-5.3056,-5.305,-5.3064,-5.3064,-5.3088,-5.3075,-5.303,-5.3029,-5.3027,-5.3026,0,-5.272,-5.27,-5.2824,-5.2836,-5.2842,-5.293,-5.294,-5.3008,-5.2999,-5.3091,-5.311,-5.3097,-5.3171,-5.3149,-5.323,-5.3216,-5.3362,-5.3337,-5.3353,-5.3347,-5.3453,-5.3445,-5.3798,-5.3843,-5.3518,-5.3521,-5.3523,0,-5.2878,-5.296,-5.2981,-5.3025,-5.3042,-5.3113,-5.3153,-5.3116,-5.316,-5.3201,-5.3264,-5.3333,-5.3386,-5.3509,-5.3507,-5.3568,-5.3545,-5.3664,-5.3554,-5.3565,-5.3549,-5.3546,-5.3554,-5.3687,-5.3691,-5.3694,-5.3697,0,-5.3161,-5.3147,-5.3206,-5.3264,-5.3313,-5.3356,-5.3393,-5.3432,-5.3398,-5.3451,-5.3526,-5.3567,-5.3649,-5.3719,-5.3775,-5.3788,-5.3738,-5.3731,-5.3759,-5.3774,-5.3781,-5.3781,-5.3415,-5.3724,-5.3721,-5.3719,-5.3718,-5.3717,-5.337,-5.3439,-5.3465,-5.3534,-5.3558,-5.3594,-5.3659,-5.3657,-5.3719,-5.3783,-5.3757,-5.3844,-5.3872,-5.3941,-5.3962,-5.4029,-5.3984,-5.4023,-5.4034,-5.4045,-5.406,-5.3768,-5.4039,-5.4038,-5.4037,-5.4037,-5.4036,0,-5.3651,-5.3663,-5.3727,-5.3781,-5.3836,-5.3781,-5.382,-5.3869,-5.3946,-5.3976,-5.403,-5.4117,-5.4184,-5.4186,-5.4248,-5.4302,-5.4281,-5.432,-5.4317,-5.4322,-5.4096,-5.4066,-5.4337,-5.4337,-5.4337,-5.4337,-5.4337,-5.4336,-5.3804,-5.392,-5.3909,-5.4035,-5.4047,-5.4131,-5.4158,-5.4191,-5.4215,-5.4315,-5.437,-5.437,-5.4389,-5.4453,-5.4512,-5.4511,-5.4538,-5.4587,-5.4577,-5.4367,-5.4337,-5.4309,-5.4281,-5.4592,-5.4593,-5.4798,-5.4799,-5.4801]},{"header":{"parameterUnit":"m.s-1","parameterCategory":1,"la1":30.2991,"la2":30.254,"lo1":-89.0895,"lo2":-89.0444,"dx":0.0017,"dy":0.0017,"nx":28,"ny":28,"refTime":"2022-11-30T15:00:00:Z","depth":0,"parameterNumber":3,"parameterNumberName":"V-component_of_WINDS"},"data":[0,0,0,0,0,0,0,0,0,0,0,0,0,0,0,0,0,0,0,0,0,0,0,0,0,0,0,0,0,0,0,0,0,0,0,0,0,0,0,0,0,0,0,0,0,0,0,0,0,0,0,0,0,0,0,0,0,0,-5.4946,-5.4946,0,-5.4981,-5.4982,-5.4982,-5.4908,-5.4905,-5.4903,-5.4901,-5.4934,-5.4937,-5.494,0,0,0,0,0,0,0,0,0,0,0,0,0,-5.4811,-5.4814,-5.4946,-5.4946,-5.4947,-5.4981,-5.4982,-5.4982,-5.4908,-5.4905,-5.4902,-5.4899,-5.4933,-5.4937,-5.4941,0,0,0,0,0,0,0,0,0,0,0,0,0,-5.486,-5.4815,-5.4946,-5.4914,-5.4912,-5.4981,-5.4982,-5.4982,-5.4909,-5.4905,-5.4901,-5.4898,-5.4932,-5.4936,-5.4941,-5.5042,0,0,-5.4956,-5.4958,0,0,0,0,0,0,0,0,-5.4858,-5.4865,-5.4918,-5.4916,-5.4914,-5.4936,-5.4946,-5.5002,-5.491,-5.491,-5.49,-5.4896,-5.4938,-5.4942,-5.4956,-5.5044,-5.5045,-5.4956,-5.4959,-5.4961,-5.4962,0,0,0,0,0,0,0,-5.4854,-5.4863,-5.496,-5.4919,-5.4916,-5.4897,-5.49,-5.4957,-5.4943,-5.4909,-5.4904,-5.4909,-5.4936,-5.4952,-5.4956,-5.5046,-5.4956,-5.496,-5.4963,-5.4965,-5.5217,-5.522,0,0,0,0,0,0,-5.4855,-5.4861,-5.4959,-5.4961,-5.4876,-5.4902,-5.4906,-5.4933,-5.4943,-5.4941,-5.4913,-5.4906,-5.4945,-5.4951,-5.4957,-5.5075,-5.4961,-5.4965,-5.4968,-5.5213,-5.5217,-5.5222,0,0,0,0,0,0,-5.4853,-5.4865,-5.4957,-5.491,-5.492,-5.4908,-5.4939,-5.4935,-5.4951,-5.4945,-5.4942,-5.4932,-5.4943,-5.4951,-5.5022,-5.5076,-5.4967,-5.4972,-5.5208,-5.5214,-5.522,-5.5313,0,0,0,0,0,0,-5.4849,-5.4864,-5.4904,-5.4911,-5.4923,-5.5022,-5.4943,-5.4939,-5.496,-5.4952,-5.4962,-5.496,-5.4941,-5.5015,-5.5026,-5.508,-5.4975,-5.5203,-5.5211,-5.5218,-5.5305,-5.5322,-5.5336,0,0,0,0,0,-5.4845,-5.4928,-5.4906,-5.4918,-5.4972,-5.5026,-5.5032,-5.5009,-5.4965,-5.5003,-5.4999,-5.496,-5.5068,-5.5023,-5.5035,-5.5091,-5.52,-5.5209,-5.5217,-5.5299,-5.5319,-5.5335,0,0,0,0,0,0,-5.4927,-5.4929,-5.4904,-5.4993,-5.501,-5.5013,-5.5061,-5.5031,-5.506,-5.5051,-5.5019,-5.5022,-5.5099,-5.5102,-5.5052,-5.5189,-5.5126,-5.5138,-5.5184,-5.5203,-5.5218,-5.5215,-5.4979,0,0,0,0,0,-5.4956,-5.5,-5.4999,-5.5077,-5.5087,-5.5073,-5.5096,-5.5076,-5.5092,-5.5098,-5.5099,-5.5115,-5.5152,-5.5178,-5.5212,-5.5305,-5.5306,-5.535,-5.5365,-5.5377,-5.5388,-5.5436,-5.5455,-5.525,-5.525,-5.525,0,0,-5.5015,-5.5022,-5.5052,-5.5094,-5.5105,-5.5151,-5.508,-5.5131,-5.5164,-5.5106,-5.5173,-5.5174,-5.519,-5.5272,-5.5309,-5.5277,-5.5444,-5.5388,-5.5398,-5.5402,-5.5447,-5.5466,-5.5484,-5.5256,-5.5255,-5.5254,0,0,-5.5147,-5.5157,-5.5223,-5.5235,-5.5252,-5.5242,-5.5258,-5.5266,-5.5264,-5.5331,-5.5288,-5.5326,-5.5392,-5.5404,-5.5419,-5.5554,-5.5519,-5.5566,-5.5645,-5.5693,-5.5709,-5.5723,-5.577,-5.5788,-5.5576,-5.5577,-5.5577,0,-5.5218,-5.5287,-5.526,-5.5315,-5.5334,-5.5284,-5.5349,-5.5362,-5.5389,-5.5403,-5.5368,-5.5448,-5.5455,-5.5539,-5.5572,-5.5586,-5.5603,-5.5565,-5.5709,-5.5723,-5.5736,-5.578,-5.5798,-5.5582,-5.5582,-5.5581,-5.5581,0,-5.5373,-5.5421,-5.5472,-5.55,-5.5525,-5.5585,-5.5567,-5.5595,-5.5573,-5.5566,-5.5634,-5.564,-5.5674,-5.5693,-5.5672,-5.5774,-5.5754,-5.5714,-5.5651,-5.5761,-5.5803,-5.582,-5.559,-5.5588,-5.5587,-5.5585,0,0,-5.5558,-5.5571,-5.559,-5.5601,-5.5616,-5.5652,-5.5709,-5.5743,-5.5767,-5.5787,-5.5833,-5.5889,-5.5853,-5.587,-5.5849,-5.5891,-5.5997,-5.5846,-5.5846,-5.5873,-5.6108,-5.6138,-5.6158,-5.5973,-5.5976,-5.5979,-5.6107,0,-5.5688,-5.5787,-5.5764,-5.5862,-5.5905,-5.5857,-5.5906,-5.592,-5.5914,-5.5949,-5.5943,-5.5983,-5.5932,-5.5941,-5.5981,-5.5976,-5.6043,-5.5966,-5.6015,-5.6017,-5.6012,-5.618,-5.6212,-5.6332,-5.6123,-5.6126,-5.6128,0,-5.5853,-5.588,-5.5982,-5.5988,-5.6006,-5.6051,-5.6079,-5.6113,-5.6127,-5.612,-5.6139,-5.611,-5.6165,-5.6101,-5.6176,-5.6124,-5.6142,-5.6142,-5.6146,-5.615,-5.6079,-5.6188,-5.637,-5.6388,-5.6153,-5.6151,-5.6149,0,-5.5977,-5.6039,-5.6107,-5.6119,-5.6128,-5.6161,-5.6166,-5.6177,-5.6198,-5.6223,-5.6236,-5.6266,-5.6283,-5.6307,-5.6286,-5.6242,-5.6364,-5.6298,-5.6358,-5.6359,-5.6386,-5.6385,-5.6574,-5.6399,-5.6399,-5.6399,-5.6398,0,-5.6125,-5.6189,-5.6163,-5.6205,-5.6275,-5.6247,-5.6316,-5.6316,-5.6326,-5.6366,-5.6326,-5.6364,-5.6335,-5.637,-5.6354,-5.6418,-5.6426,-5.6421,-5.6416,-5.6424,-5.6425,-5.6436,-5.6427,-5.6403,-5.6402,-5.6401,-5.64,0,-5.6275,-5.6261,-5.6332,-5.6335,-5.6338,-5.6389,-5.6391,-5.6429,-5.642,-5.6472,-5.6482,-5.6469,-5.6508,-5.649,-5.6531,-5.6521,-5.6602,-5.6586,-5.6598,-5.6594,-5.6655,-5.6649,-5.6857,-5.6882,-5.6692,-5.6694,-5.6695,0,-5.637,-5.6418,-5.6426,-5.6451,-5.6459,-5.6499,-5.652,-5.6495,-5.6519,-5.6537,-5.6573,-5.6609,-5.6637,-5.6702,-5.6696,-5.6727,-5.6711,-5.6781,-5.6715,-5.6722,-5.6711,-5.6708,-5.6712,-5.6795,-5.6797,-5.6799,-5.68,0,-5.654,-5.653,-5.6563,-5.6594,-5.6621,-5.6643,-5.6662,-5.6684,-5.6659,-5.6688,-5.6728,-5.6749,-5.6791,-5.6827,-5.6855,-5.6858,-5.6825,-5.6821,-5.6837,-5.6846,-5.685,-5.6848,-5.6634,-5.6816,-5.6815,-5.6814,-5.6813,-5.6812,-5.6665,-5.6705,-5.6717,-5.6755,-5.6766,-5.6785,-5.6821,-5.6816,-5.685,-5.6883,-5.6865,-5.6912,-5.6923,-5.6956,-5.6964,-5.6999,-5.6971,-5.6994,-5.7,-5.7006,-5.7013,-5.6845,-5.7004,-5.7004,-5.7003,-5.7003,-5.7003,0,-5.6832,-5.6837,-5.6872,-5.69,-5.6929,-5.6896,-5.6915,-5.6941,-5.6983,-5.6997,-5.7025,-5.707,-5.7105,-5.71,-5.7132,-5.7161,-5.7146,-5.717,-5.7167,-5.7168,-5.7037,-5.702,-5.7181,-5.7181,-5.7181,-5.7181,-5.7181,-5.7181,-5.6922,-5.6988,-5.6979,-5.705,-5.7054,-5.71,-5.7113,-5.713,-5.714,-5.7193,-5.7222,-5.7219,-5.7225,-5.7256,-5.7286,-5.7283,-5.7296,-5.7326,-5.7318,-5.7195,-5.7178,-5.7161,-5.7145,-5.7329,-5.7329,-5.7446,-5.7447,-5.7448]}]]